STARLINK-5366 (55499 NORAD) Tracking and Keplerian Element Data

This shows tracking and keplerian element data for the satellite.

Feedback or suggestion? Click here.




ElementValue
Catalog55499
NameSTARLINK-5366
Epoch Orbit802
Epoch Day85.25001157
Epoch Year2023
RAAN83.8584
Inclination43.0007
Eccentricity0.0001634
Argument of Perigee267.4136
Mean Anonmoly103.0112
Mean Motion15.04425087
Decay Rate-0.01186255
L11 55499U 23015BC 23085.25001157 -.01186255 00000+0 -91086-1 0 9996
L22 55499 43.0007 83.8584 0001634 267.4136 103.0112 15.04425087 8021



Live tracking and technical data element details for STARLINK-5366 (NORAD 55499). STARLINK-5366 can be tracked NOW for your location showing map with azimuth and elevation plus other details from your city location.







IsCatalogInMostPopularTable: catalog: 55499, numindb: -1

Insert: records affected: 1


GetName: 55499 STARLINK-5366

Hit Count: inserted at: Tue, 28 Mar 2023 03:05:30 GMT